Location: Chenereilles
(45.4866°N, 4.0790°E)
Time: 01:57:54
(UTC+00:00)

SeaSat 1 - Pass Details

Date: 12 November 2019
Orbit: 745 x 747 km, 108.0° (Epoch: 08 December)

Event Time Altitude Azimuth Distance (km) Brightness Sun altitude
Rises 17:03:21 0° 144° (SE) 3,175 5.5 -8.4°
Reaches altitude 10° 17:05:37 10° 142° (SE) 2,256 4.7 -8.8°
Maximum altitude 17:10:29 70° 59° (ENE) 794 2.4 -9.6°
Drops below altitude 10° 17:15:24 10° 337° (NNW) 2,272 5.1 -10.4°
Sets 17:17:41 0° 335° (NNW) 3,200 5.9 -10.8°
